Simultaneous Nadir Overpasses (SNOs) Predictions

Prediction of SNOs between AURA and NPP Satellite Orbit:

Table of predicted SNOs for the next 14.0 days since TLE Epoch: 10/25/2015
Index Date (AURA) Time (AURA) Lat,Lon (AURA) SZA (AURA ) Date (NPP) Time (NPP) Lat,Lon (NPP) SZA (NPP ) Distance(km) Time Diff (sec)
1 10/26/2015 17:29:53 -78.97, -9.11 75.32 10/26/2015 17:29:15 -78.97, -9.06 75.30 1.15 38
2 10/26/2015 18:19:13 79.20, 159.96 104.40 10/26/2015 18:19:53 79.19, 159.81 104.40 3.12 40
3 10/29/2015 09:46:18 -79.05, 107.30 74.56 10/29/2015 09:46:06 -79.05, 107.27 74.54 0.81 12
4 10/29/2015 10:35:35 79.40, -82.86 105.01 10/29/2015 10:36:40 79.40, -82.81 104.95 1.28 65
5 11/01/2015 01:13:24 78.78, 53.95 106.64 11/01/2015 01:12:21 78.77, 53.86 106.71 2.11 63
6 11/01/2015
